La Barousse Balès - 06/08/2017

L'OURSE 110 Km

255 participants classés


Retour au Sommaire - Signaler une erreur - Faire défiler





1 2 3 4 5 6 /fin /tout

page suivante ->

Pl Do. Nom - Surname Prénom - Name S-Cat /cat Club - Team TEMPS - Time Km/h /sx
1 762 TINE CYRIL MC 1 LUCHON LOURON CYCLISME 03:41:57 29,7 1
2 731 ZUERAS JOSEPH MC 2 GPCC 03:46:54 29,1 2
3 710 BALITRAND DOMINIQUE MC 3 TEAM GSO 03:46:55 29,1 3
4 748 COUTINHO AUGUSTE MD 1 NL 03:47:57 29,0 4
5 764 BENISTANT DAVID MA 1 UC RAUVEZIN 03:48:27 28,9 5
6 717 PETROLINI UGO MA 2 ST-GO CYCLISME COMMINGES 03:48:38 28,9 6
7 652 HIBERT MATTHIEU MA 3   03:53:44 28,2 7
8 550 PIVOTTO NICOLAS MB 1 UC CONDOM 03:57:30 27,8 8
9 681 PENDERY LEO MA 4   03:58:02 27,7 9
10 763 MIQUEL DANIEL MD 2 ZE FAUSSEREL ACF 03:58:02 27,7 10
11 513 ANCAUSSE CYRIL MB 2 GSC BLAGNAC VELO SPORT 31 03:58:03 27,7 11
12 693 JOURDAN FRANÇOIS ME 1 AL NOUILHAN 03:59:08 27,6 12
13 714 BRAUD GRÉGORY MB 3 AC BAGNERES DE BIGORRE 04:03:14 27,1 13
14 635 AVOND GUILLAUME MA 5 SJVC MONTELIMAR MONTELIMAR 04:03:17 27,1 14
15 698 DECAMPS FABIEN MA 6 ST GAUDENS CYCLISME 04:06:02 26,8 15
16 661 MITXELENA LUCIANO MF 1 BETI GAZTE 04:06:05 26,8 16
17 697 LAFORGUE GÉRÉMIE MA 7 TEAM GSO 04:10:12 26,4 17
18 758 HACQUART BRICE MA 8 AQUASPORT SAINT-CYPRIEN 04:10:47 26,3 18
19 650 DUCHAYNE QUENTIN MA 9 USCOLOMIERS CYCLISME 04:10:47 26,3 19
20 723 FAGES YANNICK MC 4 MONTREJEAU CYCLO CLUB 04:10:48 26,3 20
21 695 GERMA XAVIER MD 3 VELO CLUB ROQUETTOIS OMNISPORTS 04:10:48 26,3 21
22 628 PUJOL JOEL MC 5 AS MURET CYCLISTE 04:10:51 26,3 22
23 721 OLMEDA JEAN ME 2 NL 04:14:00 26,0 23
24 664 SORET JULIEN MB 4   04:14:01 26,0 24
25 689 SAJAS PATRICK MD 4 SAINT GAUDENS CYCLISME COMMINGES 04:14:01 26,0 25
26 647 JUCHTZER HERVÉ ME 3 GCP Pau 04:14:08 26,0 26
27 644 LE TOLLEC STEPHANE MD 5 BALMA VELO SPRINT 31 04:14:11 26,0 27
28 515 FERRE GILLES MD 6 LUCHON LOURON CYCLISME 04:14:22 25,9 28
29 631 ADAGAS JULIEN MB 5 AC TOURNEFEUILLE 04:14:22 25,9 29
30 567 ROLLINGER JULIEN MA 10 SAINT NAUPHARY VELO SPORT 04:14:22 25,9 30
31 632 JACQUES AURÉLIEN MB 6 aucun 04:14:41 25,9 31
32 690 DELOUVEE JÉRÔME MC 6 TEAM GSO 04:15:11 25,9 32
33 755 FERRARONI JEROME MC 7 BALMA OLYMPIQUE 04:15:12 25,9 33
34 739 OLLIER JEAN-CHRISTOPHE MC 8 MONTREJEAU CYCLO CLUB 04:15:14 25,9 34
35 616 CAZORLA THIBAUT MB 7 TRAIL TEAM BUCHINOIS (TTB) 04:15:15 25,9 35
36 743 SAVAZZI SYLVAIN MB 8 NL 04:15:15 25,9 36
37 705 SOURBADERE JOEL MD 7 U S PLAISANCE CYCLISME 04:15:16 25,9 37
38 674 CARDAILLAC CYRIL MC 9   04:15:40 25,8 38
39 671 LASSUS ALAIN MD 8 SAINT-GO COMMINGES 04:15:42 25,8 39
40 641 HIVER DAVID MB 9 SO6 de Toulouse 04:15:57 25,8 40
41 547 ABEILLE PATRICK MB 10 U.C.L.B. 04:16:49 25,7 41
42 506 BASTRILLES CHRISTOPHE MD 9 MONTREJEAU CYCLO CLUB 04:21:13 25,3 42
43 682 BOISSE PASCAL MC 10   04:21:13 25,3 43
44 649 GARROCQ DAVID MA 11   04:23:42 25,0 44
45 655 TORREGROSA OLIVIER MC 11 USA Latécoère 04:23:44 25,0 45
46 590 MEDAN CARLOS MD 10   04:23:44 25,0 46
47 708 THYERRY SEBASTIEN MC 12 AVENIR BIZANOS CYCLO 04:23:45 25,0 47
48 700 ERIZE JEAN - MARC MB 11 Racing Club Vallée d'Aspe 04:23:47 25,0 48
49 746 FERRE YANNICK MC 13 AS MURET 04:23:48 25,0 49
50 696 CAPESTAN CHRISTOPHE MC 14   04:23:51 25,0 50
JOSÉ a commenté - 10/08/2017 à 11:40 signaler abus
Bonjour, je suis resté jusqu'à la fin des remises, j'ai demandé à Amédée FABBRO le responsable qui est allé voir au podium et il n'y av
NICOLAS a commenté - 09/08/2017 à 21:39 signaler abus
bonjour super journee et super organisation pour la pompe elle a ete laisse sur le podium la ou a eu lieu les podiums.
JOSÉ a commenté - 07/08/2017 à 15:54 signaler abus
Comme toujours très bonne organisation, avec un MERCI très spécial au "sympathique" coureur à qui j'ai prêté ma pompe pendant l'épreuve, et qui a oublié de la rendre comme convenu. C'est dommage, mais la prochaine fois je ne prêterai rien. Les honnêtes paieront pour sa délicatesse. J'espère qu'il se reconnaitra. Cordialement. José.

Déjà membre? Identifiez-vous pour commenter l'épreuve ou créer un compte